sat.trackr.live / text

‹ back to catalog

EUTELSAT 174A

NORAD 28924 · 2005-052A

PAYLOAD ACTIVE UNKNOWN

§ Identity

Operator
Country
EUTE
Launch date
2005-12-29
Launch site
TYMSC
Launch vehicle
Mass (kg)
RCS (m²)
5.50

Purposes: comms

External: N2YO · Heavens-Above · Gunter

§ Orbital elements

Epoch: 2026-05-25T02:51:35.398080Z

Period
1,436.08 min
Inclination
4.1638°
Eccentricity
0.0006382
Mean motion
1.00272741 rev/d
Perigee alt
35,759.4 km
Apogee alt
35,813.2 km
Semi-major
42,164.5 km
B*
0.0000e+0
RAAN
76.8052°
Arg perigee
342.8483°
Mean anomaly
39.9287°
Rev number
5,210

§ Raw data

EUTELSAT 174A1 28924U 05052A   26145.11915970  .00000008  00000+0  00000+0 0  99942 28924   4.1638  76.8052 0006382 342.8483  39.9287  1.00272741 52108

JSON: /api/v1/satellites/28924 · /tle

For live sub-satellite position, see the globe view (requires WebGL).

§ Visibility from observer

Set your observer location to see the next 7 days of passes ≥ 10°. The values pass through the URL so the page stays shareable.

No JS? Fill the form by hand. The geolocation button needs JavaScript.